• MPC Preparation (Info)

  • MPEC 2016-S76 : 2016 SU2

    The following Minor Planet Electronic Circular may be linked-to from your own Web pages, but must not otherwise be redistributed electronically.

    A form allowing access to any MPEC is at the bottom of this page.


    Read MPEC 2016-S75 Read MPEC 2016-S77


    M.P.E.C. 2016-S76                                Issued 2016 Sept. 27, 21:34 UT
    
         The Minor Planet Electronic Circulars contain information on unusual
             minor planets and routine data on comets.  They are published
        on behalf of Division F of the International Astronomical Union by the
              Minor Planet Center, Smithsonian Astrophysical Observatory,
                              Cambridge, MA 02138, U.S.A.
    
                 Prepared using the Tamkin Foundation Computer Network
    
                                  MPC@CFA.HARVARD.EDU
                URL https://www.minorplanetcenter.net/    ISSN 1523-6714
    
                                       2016 SU2
    
    Observations:
         K16S02U* C2016 09 26.27817 22 23 43.07 -10 35 30.9          19.1 VqES076G96
         K16S02U  C2016 09 26.28254 22 23 49.52 -10 36 25.2          19.0 VqES076G96
         K16S02U  C2016 09 26.28686 22 23 55.76 -10 37 16.5          18.6 VqES076G96
         K16S02U  C2016 09 26.29119 22 24 02.19 -10 38 10.9          19.1 VqES076G96
         K16S02U KC2016 09 26.32603 22 24 52.82 -10 44 58.0          19.1 RoES076291
         K16S02U KC2016 09 26.32775 22 24 55.27 -10 45 17.7          19.2 RoES076291
         K16S02U KC2016 09 26.32949 22 24 57.73 -10 45 37.4                oES076291
         K16S02U KC2016 09 26.85561 22 36 16.24 -12 04 25.5          19.9 RqES076104
         K16S02U KC2016 09 26.86633 22 36 24.31 -12 05 35.8          19.7 RqES076104
         K16S02U KC2016 09 26.87198 22 36 28.48 -12 06 13.2                qES076104
         K16S02U |C2016 09 27.03523 22 38 59.40 -12 12 08.1          20.2 VuES076807
         K16S02U |C2016 09 27.04018 22 39 02.46 -12 12 37.9          20.5 VuES076807
         K16S02U |C2016 09 27.04495 22 39 05.37 -12 13 06.5          20.4 VuES076807
         K16S02U  C2016 09 27.27013 22 41 25.63 -12 40 33.3          20.0 RoES076926
         K16S02U  C2016 09 27.27314 22 41 27.11 -12 40 46.9          20.1 RoES076926
         K16S02U  C2016 09 27.27613 22 41 28.60 -12 41 00.0          20.2 RoES076926
    
    Observer details:
    104 San Marcello Pistoiese.  Observers P. Bacci, M. Maestripieri.  Measurers
        P. Bacci, L. Tesi, G. Fagioli.  0.60-m f/4 reflector + CCD.
    291 LPL/Spacewatch II.  Observer T. H. Bressi.  1.8-m f/2.7 reflector + CCD.
    807 Cerro Tololo.  Observers T. Linder, R. Holmes.  0.61-m f/6.5 astrograph
        + CCD.
    926 Tenagra II Observatory.  Observers M. Schwartz, P. R. Holvorcem.  Measurer
        M. Schwartz.  0.81-m f/7 Ritchey-Chretien + CCD.
    G96 Mt. Lemmon Survey.  Observer E. J. Christensen.  Measurers
        E. J. Christensen, D. C. Fuls, A. R. Gibbs, A. D. Grauer, J. A. Johnson,
        R. A. Kowalski, S. M. Larson, G. J. Leonard, R. G. Matheny, R. L. Seaman,
        F. C. Shelly.  1.5-m reflector + 10K CCD.
    
    Orbital elements:
    2016 SU2                                                 Earth MOID = 0.0016 AU
    Epoch 2016 July 31.0 TT = JDT 2457600.5                 MPC
    M  18.74436              (2000.0)            P               Q
    n   1.17320280     Peri.   48.92687     -0.61549854     +0.78812666
    a   0.8903361      Node   183.09408     -0.74457445     -0.58322926
    e   0.4229577      Incl.    4.49615     -0.25839974     -0.19672314
    P   0.84           H   27.8           G   0.15           U   7
    Residuals in seconds of arc
    160926 G96  0.3+  0.1-    160926 291  0.1-  0.0     160927 807  0.0   0.2+
    160926 G96  0.4+  0.3-    160926 104  0.2-  0.1-    160927 926  0.3-  0.4+
    160926 G96  1.1-  1.4+    160926 104  0.2+  0.1+    160927 926  0.0   0.0
    160926 G96  0.3+  0.2-    160926 104  0.1-  0.6-    160927 926  0.7+  0.1-
    160926 291  0.1+  0.2-    160927 807  0.3-  0.0
    160926 291  0.1+  0.2-    160927 807  0.1-  0.1+
    
    Ephemeris:
    2016 SU2                 a,e,i = 0.89, 0.42, 4                   q = 0.5138
    Date    TT    R. A. (2000) Decl.     Delta      r     Elong.  Phase     V
    2016 08 28    11 09 05.2 +14 16 44   0.2227  0.7929    11.3   165.6
    ...
    2016 09 12    11 12 22.1 +15 36 52   0.09601 0.9126    11.6   167.1
    ...
    2016 09 20    11 20 42.1 +16 53 36   0.03559 0.9703    17.3   162.0    32.2
    ...
    2016 09 26    22 14 11.5 -09 12 45   0.0092071.0105   149.0    30.7    19.0
    2016 09 27    22 38 14.1 -12 11 36   0.01647 1.0169   152.3    27.3    20.1
    2016 09 28    22 47 41.8 -13 18 13   0.02381 1.0233   152.7    26.6    20.9
    ...
    2016 10 04    23 02 18.0 -14 44 19   0.06845 1.0596   149.1    29.0    23.4
    ...
    2016 10 12    23 08 11.6 -14 41 25   0.1294  1.1037   142.7    33.3    25.0
    ...
    2016 10 27    23 18 32.0 -13 29 23   0.2495  1.1724   130.9    39.9    26.7
    
    A. U. Tomatic                (C) Copyright 2016 MPC           M.P.E.C. 2016-S76
    

    Read MPEC 2016-S75 Read MPEC 2016-S77


    MPEC number:

    Enter an MPEC number in one of the following forms:

    • 1997-B01 (the full form)
    • J97B01 (the packed version of the full form)
    • B01 (the abbreviated form)